シュヴァスマン-ヴァハマン第1彗星

29P/Schwassmann-Wachmann 1 (2004)

English version
Home page
Updated on September 3, 2011

---------------------------------------------------------------------

・ プロフィール

・ 写真集

・ 軌道要素

Epoch 2004 July 14.0 TT = JDT 2453200.5
T 2004 July 10.83380 TT                                 MPC
q   5.7235813            (2000.0)            P               Q
n   0.06726260     Peri.   48.95672     +0.99214563     -0.03564888
a   5.9880713      Node   312.71549     -0.02847755     +0.86898899
e   0.0441695      Incl.    9.39211     +0.12180344     +0.49354564
P  14.7
From 15303 observations 1902 Mar. 5-2011 May 25, mean residual 0".6.

・ 星図

・ 光度変化

        m1 = 4.0 + 5 logΔ + 7.5 log r

---------------------------------------------------------------------

軌道要素はM.P.E.C. 2011-L11に掲載されたものです。
星図は StellaNavigator Ver.2.0 for Windows (アストロアーツ編著 / アスキー出版局刊) で作成したものです。
光度グラフはComet for Windowsで作成したものです。

---------------------------------------------------------------------

Copyright(C) Seiichi Yoshida (comet@aerith.net). All rights reserved.